QPF
0.00 0.00 0.00 0.00 0.00 0.00 0.00 0.01 0.01 0.03 0.07 0.08 0.10 0.10 0.08 0.04 0.07 0.09 0.10 0.05 0.02 0.00 0.00 0.00 0.00 0.00 0.00 0.00 0.00 0.00 0.00 0.00 0.00 0.00 0.00 0.00 0.00 0.00 0.00 0.00 0.00 0.00 0.00 0.00 0.00 0.00 0.00 0.00 0.00
0.00 0.00 0.00 0.00 0.00 0.00 0.00 0.00 0.02 0.03 0.05 0.05 0.08 0.09 0.07 0.05 0.02 0.02 0.02 0.02 0.02 0.00 0.00 0.00 0.00 0.00 0.00 0.00 0.00 0.00 0.00 0.00 0.00 0.00 0.00 0.00 0.00 0.00 0.00 0.00 0.00 0.00 0.00 0.00 0.00 0.00 0.00 0.00 0.00
0.00 0.00 0.00 0.00 0.00 0.00 0.00 0.00 0.02 0.02 0.02 0.03 0.07 0.17 0.13 0.06 0.02 0.01 0.01 0.01 0.01 0.00 0.00 0.00 0.00 0.00 0.00 0.00 0.00 0.00 0.00 0.00 0.00 0.00 0.00 0.00 0.00 0.00 0.00 0.00 0.00 0.00 0.00 0.00 0.00 0.00 0.00 0.00 0.00
0.00 0.00 0.00 0.00 0.00 0.00 0.00 0.01 0.01 0.02 0.01 0.02 0.06 0.23 0.25 0.06 0.02 0.01 0.01 0.01 0.01 0.00 0.00 0.00 0.00 0.00 0.00 0.00 0.00 0.00 0.00 0.00 0.00 0.00 0.00 0.00 0.00 0.00 0.00 0.00 0.00 0.00 0.00 0.00 0.00 0.00 0.00 0.00 0.00
0.00 0.00 0.00 0.00 0.00 0.00 0.00 0.01 0.01 0.01 0.01 0.01 0.04 0.17 0.25 0.10 0.03 0.01 0.01 0.01 0.00 0.00 0.00 0.00 0.00 0.00 0.00 0.00 0.00 0.00 0.00 0.00 0.01 0.01 0.00 0.00 0.00 0.00 0.00 0.00 0.00 0.00 0.00 0.00 0.00 0.00 0.00 0.00 0.00
0.00 0.00 0.00 0.00 0.00 0.00 0.00 0.00 0.01 0.01 0.01 0.02 0.04 0.11 0.21 0.14 0.06 0.03 0.01 0.01 0.00 0.00 0.00 0.00 0.00 0.00 0.00 0.00 0.00 0.00 0.01 0.01 0.01 0.01 0.01 0.01 0.00 0.00 0.00 0.00 0.00 0.00 0.00 0.00 0.00 0.00 0.00 0.00 0.00
0.00 0.00 0.00 0.00 0.00 0.00 0.00 0.01 0.01 0.02 0.02 0.02 0.06 0.12 0.20 0.17 0.10 0.05 0.03 0.02 0.01 0.00 0.00 0.00 0.00 0.00 0.01 0.02 0.02 0.01 0.01 0.01 0.01 0.01 0.01 0.01 0.00 0.00 0.00 0.00 0.00 0.00 0.00 0.00 0.00 0.00 0.00 0.00 0.00
0.00 0.00 0.00 0.00 0.00 0.00 0.00 0.01 0.01 0.02 0.02 0.02 0.04 0.11 0.22 0.23 0.13 0.08 0.05 0.03 0.01 0.00 0.00 0.00 0.00 0.00 0.01 0.01 0.02 0.02 0.01 0.01 0.01 0.01 0.00 0.00 0.00 0.01 0.00 0.00 0.00 0.00 0.00 0.00 0.00 0.00 0.00 0.00 0.00
0.00 0.00 0.00 0.00 0.00 0.00 0.00 0.00 0.01 0.02 0.02 0.02 0.04 0.06 0.08 0.18 0.16 0.10 0.05 0.04 0.02 0.01 0.00 0.00 0.00 0.00 0.00 0.00 0.01 0.01 0.01 0.01 0.01 0.00 0.00 0.00 0.00 0.00 0.00 0.00 0.00 0.00 0.00 0.00 0.00 0.00 0.00 0.00 0.00
0.00 0.00 0.00 0.00 0.00 0.00 0.00 0.00 0.01 0.01 0.01 0.03 0.06 0.04 0.05 0.08 0.11 0.08 0.06 0.05 0.03 0.02 0.00 0.00 0.00 0.00 0.00 0.00 0.00 0.00 0.00 0.00 0.00 0.00 0.00 0.00 0.00 0.00 0.00 0.00 0.00 0.00 0.00 0.00 0.00 0.00 0.00 0.00 0.00
0.00 0.00 0.00 0.00 0.00 0.00 0.00 0.00 0.00 0.01 0.02 0.02 0.05 0.07 0.06 0.10 0.12 0.11 0.09 0.09 0.07 0.04 0.02 0.01 0.00 0.00 0.00 0.00 0.00 0.00 0.00 0.00 0.00 0.00 0.00 0.00 0.01 0.01 0.01 0.01 0.01 0.01 0.01 0.00 0.00 0.00 0.00 0.00 0.00
0.00 0.00 0.00 0.00 0.00 0.00 0.00 0.00 0.00 0.00 0.00 0.01 0.03 0.05 0.07 0.16 0.26 0.24 0.18 0.19 0.18 0.11 0.05 0.02 0.01 0.01 0.01 0.01 0.00 0.00 0.00 0.00 0.00 0.00 0.01 0.01 0.02 0.03 0.03 0.03 0.02 0.01 0.01 0.02 0.01 0.01 0.01 0.01 0.01
0.00 0.00 0.00 0.00 0.00 0.00 0.00 0.00 0.00 0.00 0.00 0.00 0.01 0.02 0.04 0.14 0.24 0.30 0.29 0.31 0.37 0.28 0.15 0.06 0.03 0.01 0.01 0.01 0.01 0.01 0.01 0.02 0.02 0.02 0.03 0.04 0.03 0.04 0.05 0.05 0.03 0.02 0.02 0.03 0.02 0.02 0.02 0.03 0.02
0.00 0.00 0.00 0.00 0.00 0.00 0.00 0.00 0.00 0.00 0.00 0.00 0.01 0.02 0.04 0.10 0.19 0.30 0.36 0.42 0.53 0.44 0.23 0.14 0.08 0.04 0.04 0.04 0.04 0.03 0.03 0.05 0.11 0.09 0.07 0.08 0.06 0.04 0.05 0.04 0.03 0.02 0.02 0.02 0.03 0.02 0.02 0.02 0.03
0.00 0.00 0.00 0.00 0.00 0.00 0.00 0.00 0.00 0.00 0.00 0.00 0.02 0.03 0.06 0.11 0.15 0.30 0.42 0.51 0.71 0.54 0.32 0.23 0.13 0.10 0.11 0.08 0.08 0.06 0.07 0.08 0.15 0.16 0.14 0.12 0.10 0.07 0.06 0.04 0.03 0.03 0.03 0.03 0.03 0.03 0.03 0.02 0.03
0.00 0.00 0.00 0.00 0.00 0.00 0.00 0.00 0.01 0.01 0.00 0.00 0.02 0.03 0.11 0.18 0.22 0.33 0.47 0.53 0.71 0.65 0.43 0.38 0.30 0.21 0.21 0.12 0.10 0.08 0.10 0.12 0.13 0.13 0.16 0.15 0.12 0.09 0.07 0.06 0.06 0.05 0.05 0.04 0.04 0.04 0.04 0.04 0.04
0.00 0.00 0.00 0.00 0.00 0.00 0.00 0.01 0.01 0.01 0.00 0.01 0.02 0.03 0.12 0.18 0.21 0.33 0.53 0.60 0.69 0.70 0.56 0.52 0.45 0.31 0.27 0.21 0.16 0.15 0.16 0.17 0.18 0.21 0.20 0.18 0.14 0.12 0.11 0.10 0.09 0.07 0.06 0.05 0.04 0.05 0.04 0.04 0.04
0.00 0.00 0.00 0.00 0.00 0.00 0.01 0.02 0.02 0.01 0.01 0.01 0.02 0.04 0.12 0.21 0.28 0.38 0.56 0.74 0.70 0.71 0.70 0.60 0.52 0.37 0.27 0.23 0.19 0.20 0.20 0.20 0.21 0.24 0.23 0.22 0.19 0.18 0.17 0.16 0.12 0.09 0.08 0.07 0.06 0.06 0.05 0.05 0.05
0.00 0.00 0.00 0.00 0.00 0.00 0.01 0.02 0.03 0.02 0.02 0.02 0.03 0.04 0.11 0.20 0.36 0.55 0.71 0.79 0.76 0.71 0.75 0.68 0.54 0.48 0.36 0.27 0.21 0.19 0.19 0.20 0.22 0.24 0.23 0.22 0.22 0.23 0.24 0.23 0.18 0.15 0.11 0.09 0.09 0.08 0.06 0.05 0.04
0.00 0.00 0.00 0.01 0.01 0.01 0.01 0.02 0.03 0.03 0.03 0.04 0.06 0.06 0.14 0.30 0.43 0.64 0.84 0.87 0.82 0.76 0.67 0.57 0.46 0.43 0.39 0.32 0.25 0.22 0.22 0.23 0.24 0.28 0.25 0.27 0.27 0.28 0.28 0.26 0.25 0.23 0.20 0.16 0.12 0.09 0.06 0.05 0.04
0.00 0.00 0.01 0.02 0.02 0.03 0.02 0.04 0.05 0.05 0.05 0.05 0.05 0.07 0.14 0.34 0.50 0.52 0.58 0.62 0.60 0.58 0.55 0.47 0.41 0.43 0.38 0.36 0.32 0.29 0.31 0.32 0.30 0.31 0.33 0.34 0.33 0.31 0.28 0.29 0.28 0.24 0.19 0.13 0.09 0.07 0.06 0.04 0.04
0.00 0.00 0.01 0.02 0.02 0.05 0.02 0.05 0.08 0.08 0.09 0.08 0.07 0.07 0.10 0.20 0.31 0.41 0.43 0.47 0.51 0.53 0.53 0.44 0.37 0.38 0.36 0.33 0.32 0.31 0.29 0.30 0.34 0.39 0.42 0.39 0.38 0.37 0.36 0.34 0.28 0.21 0.14 0.10 0.09 0.07 0.05 0.04 0.03
0.00 0.00 0.00 0.02 0.02 0.05 0.04 0.06 0.11 0.11 0.10 0.11 0.10 0.08 0.08 0.11 0.16 0.22 0.29 0.33 0.35 0.35 0.35 0.31 0.27 0.29 0.28 0.28 0.28 0.27 0.26 0.26 0.27 0.30 0.34 0.34 0.30 0.26 0.25 0.25 0.24 0.20 0.14 0.09 0.05 0.03 0.03 0.02 0.02
0.00 0.00 0.00 0.01 0.02 0.05 0.04 0.07 0.13 0.17 0.18 0.17 0.13 0.10 0.08 0.10 0.17 0.18 0.18 0.23 0.21 0.17 0.18 0.17 0.15 0.17 0.17 0.18 0.23 0.26 0.28 0.30 0.32 0.27 0.22 0.19 0.17 0.18 0.20 0.21 0.18 0.15 0.12 0.08 0.04 0.03 0.02 0.02 0.02
0.00 0.00 0.00 0.01 0.02 0.04 0.04 0.09 0.15 0.18 0.23 0.28 0.19 0.14 0.09 0.10 0.12 0.14 0.13 0.11 0.09 0.09 0.10 0.10 0.08 0.09 0.10 0.11 0.13 0.16 0.20 0.23 0.25 0.24 0.19 0.16 0.13 0.13 0.12 0.13 0.13 0.10 0.08 0.06 0.04 0.03 0.03 0.02 0.02
0.00 0.00 0.00 0.01 0.02 0.03 0.06 0.12 0.17 0.22 0.21 0.18 0.15 0.11 0.08 0.06 0.05 0.06 0.11 0.10 0.05 0.04 0.04 0.06 0.07 0.06 0.06 0.07 0.08 0.10 0.13 0.14 0.15 0.13 0.11 0.09 0.07 0.05 0.05 0.06 0.05 0.04 0.03 0.02 0.02 0.02 0.02 0.02 0.02
0.00 0.00 0.00 0.00 0.01 0.03 0.11 0.19 0.29 0.31 0.25 0.16 0.10 0.07 0.05 0.04 0.02 0.02 0.03 0.05 0.04 0.03 0.03 0.03 0.04 0.04 0.04 0.05 0.07 0.11 0.11 0.10 0.07 0.06 0.05 0.04 0.03 0.02 0.02 0.02 0.02 0.02 0.02 0.02 0.01 0.01 0.01 0.01 0.01
0.00 0.00 0.00 0.01 0.02 0.03 0.08 0.16 0.29 0.43 0.39 0.28 0.19 0.09 0.04 0.03 0.02 0.01 0.01 0.02 0.02 0.02 0.02 0.01 0.01 0.02 0.02 0.02 0.03 0.03 0.04 0.03 0.02 0.02 0.02 0.02 0.02 0.01 0.01 0.02 0.01 0.01 0.01 0.01 0.01 0.01 0.02 0.02 0.02
0.01 0.01 0.01 0.03 0.05 0.06 0.11 0.19 0.26 0.30 0.32 0.28 0.17 0.09 0.04 0.03 0.02 0.01 0.01 0.01 0.01 0.01 0.01 0.01 0.01 0.01 0.01 0.01 0.01 0.01 0.01 0.01 0.01 0.01 0.01 0.01 0.01 0.01 0.01 0.01 0.01 0.01 0.01 0.01 0.01 0.01 0.01 0.02 0.02
0.01 0.01 0.01 0.02 0.04 0.06 0.13 0.30 0.39 0.44 0.40 0.27 0.20 0.11 0.05 0.03 0.01 0.01 0.01 0.01 0.01 0.01 0.01 0.00 0.00 0.00 0.00 0.00 0.00 0.00 0.00 0.00 0.00 0.00 0.00 0.00 0.00 0.00 0.00 0.00 0.00 0.01 0.01 0.01 0.01 0.01 0.01 0.01 0.01
MSLP
1010.62 1011.36 1012.34 1013.39 1014.38 1015.18 1015.72 1016.01 1016.06 1015.95 1015.75 1015.49 1015.20 1014.85 1014.43 1013.91 1013.28 1012.57 1011.85 1011.20 1010.72 1010.46 1010.48 1010.75 1011.22 1011.80 1012.39 1012.91 1013.32 1013.62 1013.83 1014.01 1014.21 1014.48 1014.81 1015.21 1015.61 1015.99 1016.30 1016.51 1016.65 1016.72 1016.78 1016.84 1016.95 1017.08 1017.24 1017.38 1017.48
1011.26 1012.17 1013.21 1014.21 1015.04 1015.59 1015.84 1015.80 1015.56 1015.20 1014.80 1014.40 1014.02 1013.64 1013.20 1012.69 1012.08 1011.42 1010.78 1010.23 1009.88 1009.78 1009.96 1010.39 1010.99 1011.68 1012.34 1012.91 1013.36 1013.68 1013.91 1014.12 1014.37 1014.67 1015.04 1015.44 1015.84 1016.19 1016.46 1016.62 1016.71 1016.76 1016.81 1016.89 1017.02 1017.18 1017.35 1017.51 1017.60
1012.06 1013.09 1014.13 1015.02 1015.63 1015.90 1015.82 1015.47 1014.94 1014.35 1013.79 1013.30 1012.88 1012.50 1012.09 1011.62 1011.07 1010.47 1009.91 1009.46 1009.22 1009.24 1009.54 1010.09 1010.79 1011.55 1012.26 1012.87 1013.35 1013.70 1013.97 1014.22 1014.50 1014.84 1015.23 1015.63 1016.01 1016.32 1016.53 1016.64 1016.70 1016.72 1016.77 1016.87 1017.02 1017.22 1017.42 1017.59 1017.70
1012.93 1014.00 1014.98 1015.71 1016.08 1016.05 1015.67 1015.04 1014.28 1013.53 1012.88 1012.37 1011.97 1011.63 1011.29 1010.89 1010.42 1009.90 1009.41 1009.04 1008.88 1008.98 1009.35 1009.95 1010.69 1011.47 1012.20 1012.82 1013.31 1013.69 1013.99 1014.28 1014.61 1014.97 1015.37 1015.77 1016.12 1016.38 1016.54 1016.61 1016.63 1016.64 1016.70 1016.81 1017.00 1017.23 1017.46 1017.65 1017.77
1013.74 1014.79 1015.65 1016.19 1016.31 1016.01 1015.39 1014.55 1013.65 1012.83 1012.17 1011.70 1011.38 1011.14 1010.90 1010.60 1010.21 1009.77 1009.35 1009.04 1008.93 1009.06 1009.44 1010.03 1010.76 1011.51 1012.21 1012.80 1013.28 1013.66 1013.98 1014.31 1014.66 1015.06 1015.47 1015.86 1016.18 1016.41 1016.53 1016.57 1016.56 1016.57 1016.63 1016.77 1016.98 1017.23 1017.48 1017.69 1017.83
1014.38 1015.34 1016.04 1016.36 1016.25 1015.74 1014.94 1013.99 1013.05 1012.25 1011.67 1011.30 1011.11 1011.00 1010.88 1010.69 1010.40 1010.04 1009.68 1009.41 1009.32 1009.44 1009.80 1010.34 1010.99 1011.67 1012.29 1012.82 1013.26 1013.62 1013.95 1014.30 1014.68 1015.10 1015.53 1015.92 1016.23 1016.43 1016.53 1016.55 1016.54 1016.54 1016.61 1016.77 1016.99 1017.25 1017.51 1017.72 1017.86
1014.77 1015.58 1016.08 1016.18 1015.88 1015.22 1014.33 1013.36 1012.46 1011.76 1011.31 1011.09 1011.05 1011.08 1011.08 1010.99 1010.79 1010.50 1010.20 1009.97 1009.89 1010.00 1010.31 1010.78 1011.34 1011.91 1012.44 1012.89 1013.26 1013.59 1013.91 1014.27 1014.67 1015.11 1015.55 1015.95 1016.26 1016.46 1016.56 1016.58 1016.58 1016.59 1016.68 1016.83 1017.06 1017.31 1017.55 1017.75 1017.87
1014.88 1015.49 1015.78 1015.69 1015.22 1014.47 1013.56 1012.64 1011.84 1011.28 1010.99 1010.92 1011.02 1011.16 1011.27 1011.27 1011.14 1010.92 1010.68 1010.50 1010.44 1010.55 1010.83 1011.24 1011.71 1012.19 1012.61 1012.98 1013.28 1013.57 1013.87 1014.23 1014.64 1015.09 1015.55 1015.96 1016.29 1016.50 1016.62 1016.66 1016.68 1016.72 1016.81 1016.97 1017.18 1017.41 1017.61 1017.76 1017.84
1014.74 1015.14 1015.21 1014.93 1014.35 1013.55 1012.67 1011.83 1011.17 1010.76 1010.60 1010.67 1010.86 1011.08 1011.25 1011.30 1011.23 1011.08 1010.90 1010.79 1010.78 1010.92 1011.20 1011.57 1011.99 1012.40 1012.75 1013.04 1013.30 1013.54 1013.83 1014.17 1014.59 1015.05 1015.52 1015.95 1016.29 1016.53 1016.68 1016.76 1016.81 1016.88 1016.99 1017.15 1017.34 1017.53 1017.69 1017.78 1017.80
1014.42 1014.60 1014.47 1014.04 1013.37 1012.55 1011.72 1010.98 1010.44 1010.16 1010.11 1010.25 1010.48 1010.73 1010.90 1010.97 1010.94 1010.84 1010.74 1010.70 1010.78 1010.98 1011.30 1011.69 1012.10 1012.48 1012.80 1013.05 1013.27 1013.50 1013.76 1014.10 1014.52 1014.98 1015.45 1015.89 1016.25 1016.52 1016.71 1016.83 1016.93 1017.03 1017.17 1017.34 1017.51 1017.67 1017.77 1017.80 1017.75
1014.01 1014.00 1013.69 1013.13 1012.40 1011.58 1010.80 1010.16 1009.72 1009.52 1009.52 1009.67 1009.89 1010.09 1010.23 1010.28 1010.25 1010.20 1010.17 1010.23 1010.41 1010.71 1011.11 1011.55 1012.00 1012.39 1012.71 1012.97 1013.18 1013.41 1013.67 1014.01 1014.41 1014.87 1015.33 1015.77 1016.14 1016.44 1016.66 1016.83 1016.98 1017.13 1017.31 1017.49 1017.66 1017.79 1017.85 1017.83 1017.72
1013.64 1013.45 1012.99 1012.33 1011.55 1010.75 1010.02 1009.45 1009.08 1008.92 1008.92 1009.03 1009.18 1009.30 1009.36 1009.35 1009.31 1009.28 1009.32 1009.47 1009.76 1010.16 1010.65 1011.18 1011.68 1012.12 1012.48 1012.77 1013.02 1013.26 1013.54 1013.88 1014.27 1014.71 1015.16 1015.59 1015.96 1016.27 1016.52 1016.73 1016.93 1017.14 1017.35 1017.57 1017.76 1017.89 1017.93 1017.87 1017.72
1013.36 1013.02 1012.45 1011.72 1010.91 1010.13 1009.46 1008.94 1008.61 1008.46 1008.42 1008.46 1008.50 1008.51 1008.47 1008.40 1008.33 1008.31 1008.39 1008.62 1008.98 1009.47 1010.04 1010.64 1011.21 1011.71 1012.13 1012.47 1012.77 1013.05 1013.36 1013.71 1014.11 1014.53 1014.96 1015.36 1015.71 1016.02 1016.28 1016.53 1016.77 1017.03 1017.30 1017.56 1017.78 1017.93 1017.99 1017.93 1017.77
1013.22 1012.77 1012.11 1011.33 1010.53 1009.78 1009.16 1008.70 1008.40 1008.23 1008.14 1008.09 1008.03 1007.93 1007.80 1007.65 1007.54 1007.51 1007.62 1007.88 1008.28 1008.82 1009.43 1010.06 1010.67 1011.22 1011.69 1012.09 1012.45 1012.80 1013.15 1013.53 1013.94 1014.35 1014.75 1015.12 1015.44 1015.73 1016.00 1016.26 1016.54 1016.83 1017.15 1017.46 1017.73 1017.93 1018.02 1017.99 1017.86
1013.19 1012.65 1011.94 1011.15 1010.38 1009.69 1009.13 1008.72 1008.45 1008.28 1008.15 1008.03 1007.88 1007.69 1007.48 1007.27 1007.12 1007.08 1007.18 1007.43 1007.83 1008.34 1008.94 1009.56 1010.16 1010.72 1011.22 1011.68 1012.10 1012.52 1012.93 1013.36 1013.79 1014.20 1014.59 1014.93 1015.23 1015.49 1015.74 1016.01 1016.30 1016.62 1016.97 1017.33 1017.65 1017.89 1018.04 1018.07 1017.99
1013.21 1012.61 1011.88 1011.12 1010.41 1009.80 1009.33 1008.99 1008.76 1008.59 1008.45 1008.28 1008.08 1007.83 1007.57 1007.33 1007.16 1007.09 1007.16 1007.36 1007.70 1008.15 1008.66 1009.20 1009.75 1010.28 1010.79 1011.28 1011.77 1012.25 1012.75 1013.24 1013.71 1014.15 1014.54 1014.87 1015.14 1015.38 1015.61 1015.85 1016.14 1016.47 1016.83 1017.21 1017.57 1017.86 1018.07 1018.16 1018.15
1013.19 1012.56 1011.86 1011.16 1010.55 1010.05 1009.68 1009.43 1009.26 1009.12 1008.97 1008.79 1008.57 1008.31 1008.04 1007.79 1007.61 1007.52 1007.54 1007.68 1007.92 1008.25 1008.63 1009.06 1009.50 1009.96 1010.44 1010.95 1011.49 1012.05 1012.63 1013.20 1013.75 1014.24 1014.65 1014.98 1015.25 1015.46 1015.67 1015.89 1016.15 1016.46 1016.82 1017.20 1017.57 1017.89 1018.14 1018.29 1018.35
1013.04 1012.43 1011.79 1011.21 1010.73 1010.37 1010.13 1009.98 1009.87 1009.77 1009.64 1009.46 1009.24 1009.00 1008.75 1008.52 1008.36 1008.27 1008.26 1008.32 1008.46 1008.64 1008.87 1009.14 1009.45 1009.81 1010.24 1010.74 1011.31 1011.95 1012.62 1013.29 1013.92 1014.48 1014.95 1015.31 1015.59 1015.80 1015.98 1016.17 1016.40 1016.67 1016.99 1017.35 1017.70 1018.03 1018.29 1018.48 1018.60
1012.72 1012.16 1011.64 1011.21 1010.90 1010.71 1010.61 1010.56 1010.52 1010.46 1010.34 1010.18 1009.98 1009.76 1009.56 1009.39 1009.27 1009.20 1009.18 1009.19 1009.22 1009.27 1009.34 1009.45 1009.61 1009.86 1010.22 1010.70 1011.30 1012.00 1012.75 1013.52 1014.26 1014.91 1015.44 1015.86 1016.17 1016.39 1016.56 1016.72 1016.90 1017.13 1017.40 1017.70 1018.01 1018.30 1018.56 1018.77 1018.91
1012.21 1011.75 1011.39 1011.15 1011.04 1011.03 1011.08 1011.14 1011.16 1011.12 1011.01 1010.86 1010.67 1010.50 1010.35 1010.26 1010.21 1010.20 1010.20 1010.19 1010.16 1010.11 1010.04 1010.01 1010.03 1010.17 1010.45 1010.89 1011.49 1012.23 1013.06 1013.92 1014.75 1015.49 1016.11 1016.60 1016.95 1017.20 1017.37 1017.51 1017.66 1017.82 1018.02 1018.25 1018.50 1018.74 1018.96 1019.15 1019.31
1011.55 1011.25 1011.08 1011.07 1011.18 1011.36 1011.55 1011.70 1011.76 1011.73 1011.61 1011.45 1011.28 1011.14 1011.07 1011.06 1011.11 1011.19 1011.26 1011.28 1011.23 1011.12 1010.97 1010.82 1010.73 1010.76 1010.96 1011.35 1011.93 1012.69 1013.56 1014.48 1015.39 1016.21 1016.91 1017.47 1017.88 1018.16 1018.35 1018.48 1018.59 1018.70 1018.83 1018.98 1019.15 1019.32 1019.49 1019.65 1019.79
1010.85 1010.72 1010.79 1011.01 1011.35 1011.71 1012.03 1012.25 1012.33 1012.28 1012.14 1011.96 1011.79 1011.70 1011.70 1011.80 1011.97 1012.17 1012.34 1012.43 1012.42 1012.31 1012.11 1011.89 1011.72 1011.66 1011.78 1012.10 1012.64 1013.38 1014.25 1015.20 1016.15 1017.03 1017.79 1018.40 1018.86 1019.19 1019.40 1019.53 1019.61 1019.68 1019.75 1019.82 1019.91 1020.01 1020.12 1020.23 1020.34
1010.21 1010.28 1010.57 1011.03 1011.57 1012.10 1012.53 1012.80 1012.89 1012.82 1012.64 1012.44 1012.28 1012.23 1012.31 1012.52 1012.82 1013.16 1013.46 1013.66 1013.73 1013.65 1013.46 1013.21 1012.98 1012.85 1012.89 1013.14 1013.62 1014.29 1015.13 1016.06 1017.01 1017.90 1018.69 1019.33 1019.83 1020.19 1020.42 1020.55 1020.63 1020.66 1020.68 1020.70 1020.72 1020.75 1020.80 1020.86 1020.95
1009.74 1010.00 1010.49 1011.16 1011.87 1012.53 1013.05 1013.36 1013.45 1013.36 1013.16 1012.94 1012.80 1012.79 1012.96 1013.28 1013.72 1014.21 1014.65 1014.98 1015.14 1015.14 1014.98 1014.73 1014.47 1014.29 1014.25 1014.42 1014.80 1015.40 1016.16 1017.03 1017.93 1018.79 1019.57 1020.22 1020.73 1021.10 1021.35 1021.49 1021.56 1021.58 1021.57 1021.54 1021.51 1021.49 1021.49 1021.52 1021.57
1009.52 1009.93 1010.59 1011.41 1012.25 1013.01 1013.58 1013.91 1014.00 1013.90 1013.70 1013.49 1013.38 1013.44 1013.69 1014.13 1014.70 1015.32 1015.89 1016.34 1016.61 1016.68 1016.57 1016.34 1016.08 1015.86 1015.76 1015.85 1016.14 1016.63 1017.29 1018.06 1018.88 1019.68 1020.41 1021.04 1021.54 1021.91 1022.16 1022.31 1022.38 1022.39 1022.36 1022.31 1022.25 1022.20 1022.16 1022.15 1022.18
1009.58 1010.10 1010.87 1011.77 1012.68 1013.48 1014.08 1014.43 1014.53 1014.44 1014.26 1014.10 1014.05 1014.18 1014.52 1015.06 1015.73 1016.46 1017.13 1017.68 1018.03 1018.18 1018.12 1017.93 1017.67 1017.44 1017.30 1017.32 1017.52 1017.91 1018.46 1019.11 1019.83 1020.54 1021.20 1021.78 1022.24 1022.60 1022.85 1023.00 1023.08 1023.09 1023.06 1022.99 1022.92 1022.84 1022.78 1022.75 1022.75
1009.90 1010.47 1011.28 1012.20 1013.12 1013.92 1014.52 1014.87 1015.00 1014.95 1014.83 1014.74 1014.77 1014.98 1015.41 1016.03 1016.77 1017.56 1018.30 1018.90 1019.31 1019.51 1019.50 1019.35 1019.12 1018.88 1018.73 1018.71 1018.84 1019.14 1019.58 1020.13 1020.74 1021.35 1021.93 1022.44 1022.87 1023.20 1023.44 1023.59 1023.67 1023.69 1023.67 1023.60 1023.53 1023.44 1023.36 1023.31 1023.29
1010.40 1010.98 1011.76 1012.65 1013.52 1014.28 1014.85 1015.21 1015.37 1015.39 1015.36 1015.37 1015.50 1015.80 1016.30 1016.97 1017.75 1018.55 1019.30 1019.91 1020.34 1020.56 1020.59 1020.48 1020.29 1020.09 1019.95 1019.91 1020.01 1020.26 1020.62 1021.08 1021.59 1022.11 1022.61 1023.05 1023.43 1023.74 1023.96 1024.12 1024.21 1024.24 1024.22 1024.17 1024.09 1024.00 1023.91 1023.83 1023.79
1011.01 1011.55 1012.27 1013.06 1013.85 1014.54 1015.07 1015.44 1015.65 1015.75 1015.83 1015.96 1016.20 1016.59 1017.14 1017.83 1018.59 1019.36 1020.07 1020.64 1021.04 1021.27 1021.32 1021.25 1021.12 1020.97 1020.88 1020.87 1020.98 1021.20 1021.51 1021.91 1022.34 1022.79 1023.22 1023.61 1023.95 1024.23 1024.45 1024.60 1024.70 1024.75 1024.75 1024.70 1024.63 1024.53 1024.42 1024.32 1024.25
1011.63 1012.11 1012.73 1013.42 1014.09 1014.70 1015.19 1015.56 1015.83 1016.04 1016.24 1016.50 1016.85 1017.31 1017.90 1018.57 1019.29 1019.98 1020.60 1021.10 1021.45 1021.65 1021.73 1021.70 1021.63 1021.57 1021.54 1021.59 1021.73 1021.96 1022.26 1022.61 1023.00 1023.39 1023.76 1024.11 1024.42 1024.68 1024.90 1025.07 1025.18 1025.24 1025.26 1025.22 1025.14 1025.04 1024.91 1024.78 1024.67
Thickness
5795 5798 5798 5784 5757 5735 5735 5755 5771 5774 5778 5789 5791 5786 5781 5782 5781 5780 5813 5820 5817 5811 5806 5802 5800 5798 5796 5795 5792 5790 5787 5785 5783 5781 5779 5777 5774 5772 5770 5769 5766 5764 5762 5760 5758 5756 5754 5752 5750
5792 5794 5786 5765 5737 5720 5732 5761 5769 5779 5789 5794 5790 5786 5784 5788 5805 5808 5814 5818 5817 5812 5806 5802 5799 5797 5794 5792 5790 5787 5785 5782 5780 5778 5776 5773 5771 5769 5767 5766 5764 5762 5760 5758 5756 5754 5752 5751 5749
5788 5787 5766 5747 5732 5726 5740 5764 5774 5786 5795 5792 5783 5779 5777 5787 5805 5810 5816 5817 5814 5809 5804 5800 5797 5794 5791 5789 5787 5784 5781 5779 5777 5775 5772 5770 5768 5766 5765 5763 5761 5760 5758 5756 5754 5752 5751 5749 5747
5776 5765 5753 5736 5733 5747 5758 5769 5777 5783 5790 5791 5782 5770 5776 5798 5809 5815 5816 5814 5809 5805 5801 5798 5794 5791 5788 5786 5783 5781 5778 5776 5773 5771 5769 5767 5765 5763 5762 5760 5759 5757 5756 5754 5752 5750 5749 5748 5746
5764 5746 5732 5725 5736 5755 5769 5777 5780 5780 5786 5788 5781 5768 5767 5795 5811 5814 5813 5810 5806 5802 5798 5795 5791 5788 5785 5782 5780 5777 5775 5772 5770 5768 5766 5764 5762 5760 5759 5758 5757 5755 5754 5752 5750 5749 5747 5746 5745
5741 5730 5715 5715 5736 5758 5770 5779 5780 5781 5785 5787 5778 5766 5767 5790 5801 5806 5808 5803 5802 5799 5795 5791 5788 5784 5781 5779 5776 5774 5771 5769 5767 5765 5763 5761 5759 5758 5756 5755 5754 5753 5752 5750 5749 5747 5746 5745 5744
5728 5717 5712 5724 5734 5749 5768 5778 5776 5778 5781 5784 5781 5762 5765 5781 5795 5803 5803 5798 5795 5793 5790 5787 5783 5780 5777 5775 5772 5770 5768 5765 5763 5762 5760 5758 5756 5755 5754 5753 5752 5751 5750 5749 5747 5746 5745 5744 5743
5732 5716 5717 5722 5732 5745 5768 5773 5779 5778 5780 5793 5788 5767 5764 5779 5792 5797 5796 5792 5789 5787 5785 5783 5780 5776 5773 5771 5768 5766 5764 5762 5760 5758 5757 5755 5754 5752 5752 5751 5750 5750 5749 5747 5746 5745 5744 5743 5742
5733 5705 5702 5718 5732 5746 5763 5763 5774 5785 5783 5786 5789 5785 5787 5784 5787 5789 5786 5783 5781 5781 5780 5779 5777 5773 5770 5767 5764 5762 5760 5758 5757 5756 5754 5753 5751 5750 5749 5749 5748 5748 5746 5745 5744 5743 5742 5741 5741
5716 5695 5709 5730 5742 5748 5756 5760 5767 5771 5770 5774 5778 5786 5790 5783 5779 5780 5779 5776 5775 5774 5774 5774 5773 5770 5766 5763 5760 5758 5756 5754 5754 5753 5752 5750 5749 5748 5747 5747 5746 5745 5745 5743 5742 5741 5740 5740 5739
5715 5709 5723 5735 5747 5751 5753 5759 5767 5764 5759 5769 5773 5778 5783 5780 5776 5775 5775 5775 5775 5773 5770 5769 5768 5765 5763 5760 5756 5754 5753 5751 5750 5749 5748 5747 5745 5744 5744 5744 5743 5743 5742 5741 5740 5739 5738 5738 5737
5714 5721 5729 5737 5748 5749 5751 5756 5759 5762 5767 5781 5785 5785 5780 5775 5774 5775 5774 5774 5771 5768 5767 5765 5764 5761 5759 5757 5754 5752 5750 5748 5747 5746 5745 5744 5742 5741 5741 5741 5741 5741 5740 5739 5738 5736 5735 5734 5734
5711 5717 5730 5738 5743 5747 5750 5752 5756 5760 5773 5782 5782 5779 5775 5773 5773 5775 5777 5772 5767 5764 5763 5761 5761 5759 5757 5754 5752 5749 5748 5746 5746 5744 5743 5742 5740 5739 5739 5738 5738 5738 5737 5737 5735 5734 5733 5731 5730
5711 5717 5725 5732 5737 5745 5744 5748 5750 5756 5769 5769 5768 5766 5766 5766 5766 5767 5768 5766 5763 5761 5760 5758 5757 5755 5755 5752 5750 5748 5747 5745 5744 5743 5743 5742 5740 5738 5737 5736 5735 5735 5734 5734 5733 5732 5730 5729 5727
5711 5708 5713 5725 5733 5740 5739 5730 5741 5756 5761 5756 5754 5755 5755 5756 5759 5759 5762 5760 5759 5757 5756 5754 5754 5752 5750 5749 5747 5745 5745 5743 5742 5742 5741 5740 5739 5737 5736 5735 5733 5731 5731 5730 5729 5727 5726 5724 5723
5696 5692 5690 5712 5726 5733 5724 5708 5736 5751 5750 5745 5745 5747 5747 5747 5751 5753 5756 5757 5756 5753 5751 5751 5750 5749 5747 5746 5744 5743 5741 5740 5738 5738 5737 5736 5736 5735 5732 5730 5729 5727 5726 5725 5724 5722 5719 5718 5717
5674 5670 5678 5697 5719 5723 5713 5704 5727 5742 5741 5735 5736 5738 5739 5740 5743 5744 5747 5749 5748 5747 5745 5744 5743 5743 5744 5743 5741 5738 5737 5734 5733 5732 5730 5728 5728 5728 5727 5725 5723 5722 5721 5719 5718 5715 5713 5710 5708
5658 5665 5674 5684 5708 5711 5700 5701 5716 5726 5729 5726 5726 5728 5729 5730 5731 5735 5735 5738 5739 5740 5738 5737 5740 5737 5738 5738 5737 5734 5731 5728 5725 5723 5721 5720 5721 5721 5720 5717 5716 5715 5713 5711 5710 5708 5706 5703 5701
5670 5670 5674 5692 5710 5702 5695 5695 5701 5711 5714 5714 5715 5717 5718 5719 5723 5728 5727 5726 5728 5729 5729 5728 5730 5729 5730 5730 5729 5726 5722 5718 5716 5714 5712 5712 5712 5712 5711 5708 5707 5706 5703 5701 5701 5700 5696 5694 5693
5672 5669 5676 5690 5706 5700 5689 5685 5691 5698 5700 5703 5705 5707 5709 5711 5714 5717 5720 5720 5717 5717 5719 5721 5720 5721 5724 5724 5724 5721 5715 5708 5705 5701 5700 5701 5702 5702 5701 5697 5695 5694 5692 5691 5691 5691 5687 5684 5683
5674 5672 5677 5684 5694 5695 5687 5672 5678 5684 5688 5691 5692 5696 5699 5703 5704 5706 5709 5710 5708 5705 5704 5707 5710 5710 5714 5716 5715 5712 5706 5700 5695 5692 5690 5689 5690 5689 5688 5686 5684 5683 5681 5680 5679 5679 5678 5675 5674
5669 5689 5691 5690 5680 5670 5681 5656 5665 5673 5676 5679 5680 5684 5686 5689 5693 5694 5696 5697 5696 5694 5692 5693 5697 5698 5701 5704 5704 5702 5696 5690 5684 5680 5679 5677 5677 5676 5675 5673 5672 5670 5668 5667 5667 5666 5666 5666 5663
5681 5696 5693 5688 5677 5668 5671 5658 5658 5669 5668 5670 5672 5674 5675 5677 5680 5681 5682 5683 5684 5684 5682 5681 5685 5687 5689 5690 5691 5690 5685 5679 5674 5670 5669 5667 5664 5662 5661 5659 5659 5656 5655 5653 5653 5652 5652 5652 5650
5693 5688 5683 5675 5664 5652 5666 5658 5652 5663 5667 5665 5664 5664 5665 5666 5668 5670 5669 5670 5671 5673 5671 5670 5672 5674 5675 5676 5677 5676 5673 5667 5663 5658 5655 5653 5650 5647 5645 5645 5644 5642 5641 5640 5640 5638 5637 5636 5635
5682 5661 5644 5644 5638 5644 5665 5657 5649 5661 5665 5661 5657 5654 5654 5656 5657 5658 5658 5657 5657 5658 5658 5658 5660 5660 5661 5661 5661 5660 5658 5654 5650 5645 5642 5639 5636 5634 5631 5630 5630 5628 5627 5627 5627 5625 5623 5621 5620
5673 5662 5639 5634 5635 5641 5655 5646 5645 5651 5652 5651 5648 5647 5646 5644 5645 5645 5644 5644 5644 5644 5644 5644 5645 5645 5644 5645 5645 5643 5642 5639 5635 5631 5628 5626 5623 5620 5618 5617 5616 5614 5614 5613 5612 5610 5607 5605 5603
5672 5665 5664 5648 5646 5636 5638 5640 5640 5642 5641 5640 5638 5637 5635 5633 5633 5633 5631 5631 5630 5630 5630 5630 5631 5630 5629 5629 5628 5627 5625 5623 5619 5617 5615 5612 5610 5607 5605 5603 5602 5600 5599 5598 5596 5593 5590 5589 5586
5680 5674 5656 5645 5633 5626 5634 5637 5637 5635 5635 5632 5629 5627 5624 5622 5622 5621 5619 5619 5618 5617 5616 5616 5616 5616 5614 5613 5613 5611 5609 5608 5605 5603 5601 5598 5596 5593 5591 5589 5587 5586 5584 5582 5580 5577 5575 5573 5570
5671 5667 5657 5643 5639 5627 5622 5628 5646 5640 5634 5629 5624 5619 5616 5614 5612 5610 5609 5609 5608 5606 5604 5602 5602 5601 5599 5598 5597 5596 5594 5593 5591 5589 5587 5584 5582 5579 5577 5575 5572 5570 5568 5566 5564 5562 5559 5557 5554
5673 5667 5658 5642 5636 5634 5626 5624 5643 5637 5630 5625 5618 5612 5609 5606 5604 5602 5600 5599 5597 5594 5591 5589 5589 5588 5586 5585 5584 5582 5580 5579 5577 5575 5573 5570 5567 5565 5563 5560 5557 5555 5553 5551 5548 5546 5544 5541 5538